This is the latest recevied weather packets stored in our database for station/object IK6IHU-3. If no packets are shown the sender has not sent any weather packets the latest 10 day(s).
| Time | Temp. | Humidity | Pressure | Rain* | Wind** | Luminosity | Snow |
|---|---|---|---|---|---|---|---|
| 1777293124 | 22.22° C | 45% | 1016.9 hPa | 0 mm | - | 0 W/m² | - |
| 1777293064 | 22.22° C | 47% | 1016.9 hPa | 0 mm | - | 0 W/m² | - |
| 1777293005 | 22.22° C | 47% | 1017 hPa | 0 mm | - | 0 W/m² | - |
| 1777292945 | 22.22° C | 48% | 1016.9 hPa | 0 mm | - | 0 W/m² | - |
| 1777292884 | 21.67° C | 45% | 1017.2 hPa | 0 mm | - | 0 W/m² | - |
| 1777292825 | 21.67° C | 46% | 1017 hPa | 0 mm | - | 0 W/m² | - |
| 1777292764 | 21.67° C | 46% | 1016.8 hPa | 0 mm | - | 0 W/m² | - |
| 1777292704 | 21.67° C | 46% | 1017 hPa | 0 mm | - | 0 W/m² | - |
| 1777292644 | 21.67° C | 43% | 1017.1 hPa | 0 mm | - | 0 W/m² | - |
| 1777292585 | 22.22° C | 43% | 1017.2 hPa | 0 mm | - | 0 W/m² | - |
| 1777292524 | 22.22° C | 45% | 1016.9 hPa | 0 mm | - | 0 W/m² | - |
| 1777292465 | 22.22° C | 42% | 1017.2 hPa | 0 mm | - | 0 W/m² | - |
| 1777292404 | 22.22° C | 43% | 1017.1 hPa | 0 mm | - | 0 W/m² | - |
| 1777292344 | 22.78° C | 47% | 1017 hPa | 0 mm | - | 0 W/m² | - |
| 1777292285 | 22.22° C | 47% | 1017 hPa | 0 mm | - | 0 W/m² | - |
| 1777292224 | 22.22° C | 45% | 1017.1 hPa | 0 mm | - | 0 W/m² | - |
| 1777292164 | 22.22° C | 47% | 1017 hPa | 0 mm | - | 0 W/m² | - |
| 1777291985 | 22.22° C | 46% | 1017 hPa | 0 mm | - | 0 W/m² | - |
| 1777291924 | 22.22° C | 45% | 1016.9 hPa | 0 mm | - | 0 W/m² | - |
| 1777291864 | 22.22° C | 45% | 1016.9 hPa | 0 mm | - | 0 W/m² | - |
| 1777291804 | 22.22° C | 45% | 1017.1 hPa | 0 mm | - | 0 W/m² | - |
| 1777291745 | 22.22° C | 46% | 1017.1 hPa | 0 mm | - | 0 W/m² | - |
| 1777291685 | 22.22° C | 42% | 1017 hPa | 0 mm | - | 0 W/m² | - |
| 1777291624 | 22.22° C | 45% | 1017.2 hPa | 0 mm | - | 0 W/m² | - |
| 1777291565 | 22.22° C | 45% | 1017 hPa | 0 mm | - | 0 W/m² | - |
* Rain latest hour (hover to see other rain measurements)
** Current wind speed in m/s (hover to see current wind gust speed)